Regional Weather Roundup
Issued by NWS Jackson, KY

Home | Current Version | Previous Version | Graphics & Text | Print | Product List | Glossary On
Versions: 1 2 3 4 5 6 7 8 9 10 11 12 13 14 15 16 17 18 19 20 21 22 23 24 25 26 27
000
ASUS43 KJKL 230110
RWRJKL

EAST KENTUCKY HOURLY WEATHER ROUNDUP
NATIONAL WEATHER SERVICE JACKSON KY
900 PM EDT FRI JUL 22 2016

NOTE: "FAIR" INDICATES FEW OR NO CLOUDS BELOW 12,000 FEET WITH
NO SIGNIFICANT WEATHER AND/OR OBSTRUCTIONS TO VISIBILITY.

* THESE REPORTS ARE NOT UNDER NWS QUALITY CONTROL AND MAY NOT
  REPORT WEATHER SUCH AS PRECIPITATION AND FOG.

KYZ079-080-083-085-087-088-110-112-115-119-120-230200
...EASTERN KENTUCKY...

CITY           SKY/WX    TMP DP  RH WIND       PRES   REMARKS
JACKSON        PTCLDY    72  69  90 CALM      30.03F
LONDON         CLOUDY    78  66  66 N14       30.06R
SOMERSET*      CLOUDY    72  70  94 NW13      30.08R
MONTICELLO*    TSTM     N/A N/A N/A N17       30.06R
WILLIAMSBURG*  PTCLDY    81  77  89 CALM      30.04R
MIDDLESBORO*   PTCLDY    81  75  82 W3        30.04S
HARLAN APT*      N/A     79  70  73 CALM      30.06R
PIKE CO APT*   MOCLDY    73  71  93 CALM      30.05F
MOREHEAD APT*  FOG       73  72  94 NW5       30.04S VSB 3/4
ASHLAND*       CLEAR     73  72  94 CALM      30.00R
$$

KYZ035-036-041-042-044-050-067-078-099-230200
...CENTRAL KENTUCKY...

CITY           SKY/WX    TMP DP  RH WIND       PRES   REMARKS
MT STERLING*   CLOUDY    72  72 100 SW5       30.04S
FLEMING/MASON* CLOUDY    73  71  94 CALM      30.04S
DANVILLE*      CLOUDY    75  68  78 W7        30.07R
RICHMOND*      CLOUDY    73  70  88 S5        30.04S
LEXINGTON      CLOUDY    78  70  76 S10       30.04R
FRANKFORT      CLOUDY    80  70  71 SE3       30.02R
LOUISVILLE     CLOUDY    85  71  63 SW10      29.99R HX  90
LEBANON*       LGT RAIN  73  70  88 SE14G20   30.04F
GLASGOW*       MOCLDY    74  74 100 CALM      30.01R
BOWLING GREEN  CLOUDY    78  74  87 SE3       30.00S
$$

KYZ091>093-OHZ055-061-077-WVZ005-015-034-035-042-230200
...SOUTHERN OHIO/WEST VIRGINIA...

CITY           SKY/WX    TMP DP  RH WIND       PRES   REMARKS
COVINGTON      MOCLDY    79  73  82 S6        30.02R
COLUMBUS       MOCLDY    80  70  71 SW8       29.99S
DAYTON         PTCLDY    79  74  84 SE5       30.02R
WILMINGTON     MOCLDY    77  72  84 S5        30.02R
HUNTINGTON       N/A     74  71  91 CALM      30.02R
CHARLESTON     MOCLDY    77  68  73 CALM      30.02S
PINEVILLE*       N/A     74  70  85 MISG      30.11F
BECKLEY          N/A     75  66  73 CALM      30.11S
BLUEFIELD        N/A     73  64  73 SW5       30.14S
LOGAN CO APT*    N/A     75  70  83 CALM      30.04F
$$

VAZ002-007-008-TNZ017-027-036-066-071-230200
...SOUTHWEST VIRGINIA/EAST TENNESSEE...

CITY           SKY/WX    TMP DP  RH WIND       PRES   REMARKS
WISE*            N/A     79  57  47 CALM      30.14F
JONESVILLE*      N/A     82  72  69 CALM      30.07R
ABINGDON*        N/A     81  66  60 CALM      30.09S
BRISTOL        MOCLDY    82  69  64 N6        30.04S
MORRISTOWN*    MOCLDY    84  70  61 SW3       30.03S
SEVIERVILLE*   CLEAR     84  64  51 CALM      30.01S
KNOXVILLE      MOCLDY    89  66  46 CALM      30.00R HX  91
OAK RIDGE      MOCLDY    88  71  57 CALM      30.02S HX  94
CROSSVILLE     CLOUDY    79  73  82 CALM      30.08S
NASHVILLE      CLOUDY    82  68  62 N3        29.99S
$$

...KEY TO REMARKS...
VSB - VISIBILITY IN MILES
WCI - WIND CHILL INDEX
HX  - HEAT INDEX

$$




USA.gov is the U.S. government's official web portal to all federal, state and local government web resources and services.